Regional Weather Roundup
Issued by NWS Charleston, SC

Current Version | Previous Version | Graphics & Text | Print | Product List | Glossary On
Versions: 1 2 3 4 5 6 7 8 9 10 11 12 13 14 15 16 17 18 19 20 21 22 23 24 25 26 27 28 29 30 31 32 33 34 35 36 37 38 39 40 41 42 43 44 45 46 47 48 49 50
000 ASUS42 KCHS 090312 RWRCHS REGIONAL WEATHER ROUNDUP NATIONAL WEATHER SERVICE CHARLESTON SC 1000 PM EST THU DEC 08 2016 NOTE: "FAIR" INDICATES FEW OR NO CLOUDS BELOW 12,000 FEET WITH NO SIGNIFICANT WEATHER AND/OR OBSTRUCTIONS TO VISIBILITY. NOT ALL STATIONS ARE QUALITY CONTROLLED. USE DATA WITH CAUTION... ESPECIALLY DEWPOINT OBSERVATIONS. SCZ027-030-031-034>040-042>050-090400- ...SOUTHEAST SOUTH CAROLINA... CITY SKY/WX TMP DP RH WIND PRES REMARKS N CHARLESTON MOCLDY 50 34 54 N10 30.23R WATERFRONT PRK N/A 54 42 64 NW8 30.22R MOUNT PLEASANT NOT AVBL JOHNS ISLAND FAIR 52 37 58 NW8 30.23S PINOPOLIS N/A 54 39 58 N15 30.16R MONCKS CORNER CLOUDY 50 34 53 N5 30.24S SUMMERVILLE CLOUDY 50 30 46 NW6 30.26S BEAUFORT MCAS PTCLDY 52 37 56 N9 30.25R BEAUFORT ARPT FAIR 52 37 58 N12 30.25R HILTON HEAD IS PTCLDY 54 43 66 NW12G18 30.25R WALTERBORO PTCLDY 46 32 57 NW5 30.27S ALLENDALE FAIR 45 34 65 CALM 30.27R ...SOUTHERN MIDLANDS AND PEE DEE... CITY SKY/WX TMP DP RH WIND PRES REMARKS GEORGETOWN NOT AVBL KINGSTREE FAIR 45 34 65 CALM 30.24S ORANGEBURG CLOUDY 46 29 51 NW3 30.27R BARNWELL NOT AVBL AIKEN FAIR 41 32 70 NW3 30.31R MANNING MOCLDY 46 32 57 N7 30.25S COLUMBIA CLOUDY 45 25 45 CALM 30.27R SUMTER CLOUDY 44 28 53 NW6 30.24R FLORENCE MOCLDY 46 26 45 N8 30.24R MYRTLE BEACH CLEAR 48 30 49 N12 30.25R N MYRTLE BEACH CLOUDY 45 32 60 CALM 30.23R $$ GAZ063-065-086>088-099>101-113>116-118-119-134>141-150-090400- ...SOUTHEAST GEORGIA... CITY SKY/WX TMP DP RH WIND PRES REMARKS SAVANNAH ARPT PTCLDY 50 28 42 NW16 30.26R HUNTER AAF PTCLDY 51 36 55 NW15 30.23R FORT STEWART PTCLDY 49 26 39 NW15 30.25R STATESBORO PTCLDY 46 30 53 NW8 30.29R SYLVANIA PTCLDY N/A N/A N/A N7 30.29R CLAXTON FAIR 47 29 49 W5 30.29R ...CSRA...CENTRAL AND FAR SOUTHEAST GEORGIA... CITY SKY/WX TMP DP RH WIND PRES REMARKS THOMSON CLOUDY 44 26 48 CALM 30.34S AUGUSTA-BUSH MOCLDY 45 23 42 NW8 30.29R AUGUSTA-DANIEL CLOUDY 45 20 36 NW8 30.29R SWAINSBORO FAIR 43 28 56 NW6 30.30S VIDALIA PTCLDY 46 32 57 NW8 30.30R EASTMAN FAIR 44 10 25 CALM 30.35F HAZLEHURST FAIR 48 26 43 NW6 30.30R ALMA CLOUDY 49 28 44 NW13G20 30.29R WAYCROSS PTCLDY 52 32 46 N7 30.29R JESUP FAIR 52 32 46 N8 30.28R BAXLEY FAIR 50 32 50 N6 30.29R BRUNSWICK PTCLDY 54 41 62 N3 30.26R SAINT SIMONS MOCLDY 55 35 47 NW10 30.24R $$ SCZ027-028-034-036>038-045-046-048>050-GAZ119-141-090400- ...LAKE AND SUPPLEMENTAL COASTAL OBSERVATIONS... STATION/POSITION TIME TEMP WIND PRES WAVE SWELL AIR SEA DIR/SP/G HT/PER HT/PER/DIR (UTC) (F) (DEG/KT/KT) (MB) (FT/S) (FT/S/D) WINYAH BAY 0145 51 350/ 4 1023.0 LAKE MURRAY 0220 44 320/ 2/ 5 1024.4 ACE BASIN NERRS 0145 54 340/ 3 1023.0 FORT PULASKI 0236 53 62 340/ 10/ 13 1024.1R SAPELO ISLAND 0200 55 330/ 10 1024.0 $$ ANZ835-935-AMZ111-154-330-350-352-354-370-450-454-472-090400- ...C-MAN AND BUOY OBSERVATIONS... STATION/POSITION TIME TEMP WIND PRES WAVE SWELL AIR SEA DIR/SP/G HT/PER HT/PER/DIR (UTC) (F) (DEG/KT/KT) (MB) (FT/S) (FT/S/D) BUOY 41004 0250 59 73 350/ 21/ 25 1021.6R 4/ 4 2/ 40/ 9 BUOY 41008 0250 58 64 330/ 21/ 25 1023.1R 3/ 4 2/130/10 FOLLY BEACH CMAN 0200 54 340/ 8/ 10 1023.5R CAPERS NEARSHORE 0208 55 61 350/ 14/ 17 1023.1R FRIPP NEARSHORE 0208 57 62 350/ 12/ 17 1023.0S STATION/POSITION TIME TEMP WIND PRES WAVE SWELL AIR SEA DIR/SP/G HT/PER HT/PER/DIR (UTC) (F) (DEG/KT/KT) (MB) (FT/S) (FT/S/D) 5E ST. MARYS GA 0230 65 N/A 2/ 3 FRYING PAN BUOY 0250 55 73 350/ 19/ 25 1022.5R 5/ 6 2/ 60/ 9 BUOY 41025 0250 53 77 330/ 23/ 27 1020.0R 5/ 5 2/ 50/ 9 CAPE LOOKOUT NC 0200 49 320/ 13/ 16 1021.3R BUOY 41002 0250 73 74 300/ 17/ 19 1017.3S 5/ 5 3/ 40/ 8 BUOY 41010 NOT AVBL ST AUGUSTINE FL 0300 60 67 340/ 13/ 15 1023.8S $$

USA.gov is the U.S. government's official web portal to all federal, state and local government web resources and services.